Regional Weather Roundup
Issued by NWS Sterling, VA

Home | Current Version | Previous Version | Graphics & Text | Print | Product List | Glossary On
Versions: 1 2 3 4 5 6 7 8 9 10 11 12 13 14 15 16 17 18 19 20 21 22 23 24 25 26 27 28 29 30 31 32 33 34 35 36 37 38 39 40 41 42 43 44 45 46 47 48 49 50
109
ASUS41 KLWX 281011
RWRLWX

REGIONAL WEATHER ROUNDUP
NATIONAL WEATHER SERVICE BALTIMORE MD/WASHINGTON DC
600 AM EDT FRI JUL 28 2017

Note: "FAIR" indicates few or no clouds below 12,000 feet
with no significant weather and/or obstructions to visibility.
 TC=TEMPERATURE CELSIUS

 * =Non NWS site. Station does not report precipitation (e.g. rain,
    snow, etc.), thunder, or fog.

DCZ001-MDZ009-015-VAZ040>042-051-053>054-281100-
WASHINGTON METRO

CITY           SKY/WX    TMP DP  RH WIND       PRES   REMARKS
WASHINGTON NAT MOCLDY    76  72  87 NW7       29.83S
DULLES         MOCLDY    70  68  93 CALM      29.84S
ANDREWS AFB    PTCLDY    74  71  91 CALM      29.82F
FT BELVOIR     MOCLDY    71  70  95 CALM      29.83R
QUANTICO       CLOUDY    74  72  93 CALM      29.84S
COLLEGE PARK*  CLOUDY    72  70  93 CALM      29.83S
LEESBURG*      CLOUDY    70  70 100 CALM      29.86R
MANASSAS*      CLOUDY    70  70 100 CALM      29.85R FOG
GAITHERSBURG*  PTCLDY    70  69  97 CALM      29.85S FOG

$$

MDZ006>007-011-014-281100-
BALTIMORE METRO

CITY           SKY/WX    TMP DP  RH WIND       PRES   REMARKS
BWI AIRPORT    CLOUDY    75  73  93 NE6       29.83R
MD SCIENCE CTR   N/A     76  74  93 MISG      29.83R
MARTIN STATE   CLOUDY    75  75 100 N6        29.84S FOG
ANNAPOLIS      CLOUDY    79  79 100 E5        29.82R
FORT MEADE*    MOCLDY    68  68 100 CALM      29.85S

$$

MDZ012-015-019>023-281100-
MARYLAND EASTERN SHORE

CITY           SKY/WX    TMP DP  RH WIND       PRES   REMARKS
OCEAN CITY     CLEAR     73  71  93 W3        29.84R
SALISBURY      CLEAR     71  71 100 S6        29.83S
BAY BRIDGE AP* CLOUDY    75  73  94 CALM      29.83R
CAMBRIDGE*     MOCLDY    70  70 100 CALM      29.83R
EASTON*        MOCLDY    72  70  94 CALM      29.87R FOG

$$

MDZ017>025-281100-
SOUTHERN MARYLAND

CITY           SKY/WX    TMP DP  RH WIND       PRES   REMARKS
PATUXENT RIVER PTCLDY    71  70  96 W3        29.82S
ST INIGOES     MOCLDY    75  71  87 W6        29.82S
LEONARDTOWN*   PTCLDY    70  68  94 CALM      29.85S

$$

MDZ003>005-281100-
NORTH CENTRAL MARYLAND

CITY           SKY/WX    TMP DP  RH WIND       PRES   REMARKS
FREDERICK*     CLOUDY    72  72 100 CALM      29.87R FOG
HAGERSTOWN APT FOG       72  70  93 CALM      29.86S VSB 1/2
WESTMINSTER*   CLOUDY    72  70  94 CALM      29.86S FOG

$$

MDZ501>502-281100-
WESTERN MARYLAND

CITY           SKY/WX    TMP DP  RH WIND       PRES   REMARKS
OAKLAND*       CLOUDY    63  63 100 CALM      29.92S
CUMBERLAND*      N/A     68  68 100 CALM      29.91R

$$

VAZ025>031-281100-
SHENANDOAH VALLEY

CITY           SKY/WX    TMP DP  RH WIND       PRES   REMARKS
WINCHESTER*    CLOUDY    64  64 100 CALM      29.86S FOG
FRONT ROYAL*   CLOUDY    68  68 100 S3        29.86R
LURAY*         RAIN      70  70 100 CALM      29.88R
NEW MARKET*    CLOUDY    69  68  96 CALM      29.87F
STAUNTON*      CLOUDY    69  68  96 CALM      29.90F
WAYNESBORO*    CLOUDY    69  69 100 CALM      29.90R

$$

WVZ021-048>050-054>055-281100-
EASTERN WEST VIRGINIA PANHANDLE

CITY           SKY/WX    TMP DP  RH WIND       PRES   REMARKS
MARTINSBURG    CLOUDY    67  65  93 CALM      29.85S FOG
PETERSBURG*    CLOUDY    71  71  99 CALM      29.88F FOG

$$

VAZ036>039-050-281100-
CENTRAL FOOTHILLS

CITY           SKY/WX    TMP DP  RH WIND       PRES   REMARKS
CHARLOTTESVILL CLOUDY    75  71  87 CALM      29.85S
CULPEPER*      CLOUDY    71  71 100 CALM      29.86S FOG
ORANGE*        CLOUDY    70  70 100 CALM      29.85S
GORDONSVILLE*  CLOUDY    71  71 100 CALM      29.85R
WARRENTON*     FOG       71  69  91 CALM      29.85R VSB 3/4

$$

VAZ055>057-281100-
NORTH AND CENTRAL PIEDMONT

CITY           SKY/WX    TMP DP  RH WIND       PRES   REMARKS
FREDERICKSBRG* MOCLDY    73  73 100 CALM      29.83S
STAFFORD*      CLOUDY    70  70 100 CALM      29.88S

$$

NCZ024-NYZ072-PAZ021-071-VAZ022-071-281100-
OTHER REGIONAL OBSERVATIONS

CITY           SKY/WX    TMP DP  RH WIND       PRES   REMARKS
NEW YORK CITY  CLEAR     72  69  90 CALM      29.88S
PHILADELPHIA   CLOUDY    72  70  93 NE7       29.85R FOG
PITTSBURGH     MOCLDY    70  69  97 S3        29.86S
ROANOKE        CLOUDY    72  70  93 NW3       29.91S
RICHMOND       CLOUDY    75  70  84 W5        29.84S
RALEIGH        CLOUDY    78  74  87 SW9       29.88F

$$

ANZ530>537-281100-
MARINE OBSERVATIONS

STATION/POSITION TIME  TEMP    WIND        PRES
                       AIR SEA DIR/SP/G
                 (UTC) (F)     (DEG/KT/KT) (MB)
THOMAS PT LIGHT  1000   76 81  250/  7/  8   N/A
BALT KEY BRIDGE  0948   75      40/  5/  5 1009.8R
COVE POINT       0948   74     270/  6/ 11 1010.5R
LEWISETTA        0948   75 83  280/  6/  7 1010.0R
SOLOMONS ISLAND  0948   74 83  300/  3/  5   N/A
PINEY POINT      0942          290/  6/  7   N/A

$$





USA.gov is the U.S. government's official web portal to all federal, state and local government web resources and services.